Zapata, TX

3:02 PM CDT on August 23, 2017 (GMT -0500)
Zapata

Weather History for KAPY - June, 2013

Change the Weather History Date:

Monday, June 17, 2013

  Actual Average (KLRD) Record (KLRD)
Temperature  
Mean Temperature 88 °F -  
Max Temperature 99 °F 95 °F 113 °F (2011)
Min Temperature 78 °F 74 °F 65 °F (1917)
Cooling Degree Days 24    
Growing Degree Days 38 (Base 50)    
Moisture  
Dew Point 66 °F    
Average Humidity 53    
Maximum Humidity 79    
Minimum Humidity 24    
Precipitation  
Precipitation 0.00 in - - ()
Sea Level Pressure  
Sea Level Pressure 29.88 in    
Wind  
Wind Speed 10 mph (SE)    
Max Wind Speed 17 mph    
Max Gust Speed 23 mph    
Visibility 9 miles    
Events      
Averages and records for this station are not official NWS values.
T = Trace of Precipitation, MM = Missing Value Source: NWS Daily Summary

Daily Weather History Graph

Daily Weather History Graph

Search for Another Location

Airport or City:

Trip Planner

Search our weather history database for the weather conditions in past years. The results will help you decide how hot, cold, wet, or windy it might be!

Date:

Astronomy

Jun. 17, 2013 Rise Set
Actual Time 6:42 AM CDT 8:33 PM CDT
Civil Twilight 6:16 AM CDT 8:59 PM CDT
Nautical Twilight 5:44 AM CDT 9:31 PM CDT
Astronomical Twilight 5:11 AM CDT 10:05 PM CDT
Moon 2:39 PM CDT (6/17) 1:50 AM CDT (6/17)
Length of Visible Light 14h 43m
Length of Day
13h 50m
First Quarter, 60% of the Moon is Illuminated
Jun 17
First Quarter
Jun 23
Full
Jun 29
Last Quarter
Jul 8
New
Jul 15
First Quarter

Hourly Weather History & Observations

Time (CDT) Temp. Heat Index Dew Point Humidity Pressure Visibility Wind Dir Wind Speed Gust Speed Precip Events Conditions
12:15 AM 82.4 °F 85.8 °F 68.9 °F 64% 29.94 in 10.0 mi SE 9.2 mph 16.1 mph N/A   Clear
12:35 AM 82.4 °F 86.3 °F 70.0 °F 66% 29.94 in 10.0 mi SE 12.7 mph 18.4 mph N/A   Mostly Cloudy
12:55 AM 82.0 °F 86.1 °F 70.3 °F 68% 29.94 in 10.0 mi SE 13.8 mph 19.6 mph N/A   Overcast
1:15 AM 81.5 °F 85.5 °F 70.7 °F 70% 29.94 in 10.0 mi SE 12.7 mph 18.4 mph N/A   Mostly Cloudy
1:35 AM 81.5 °F 85.5 °F 70.7 °F 70% 29.93 in 10.0 mi SE 10.4 mph 23.0 mph N/A   Mostly Cloudy
1:55 AM 81.0 °F 84.7 °F 70.9 °F 71% 29.92 in 10.0 mi SE 10.4 mph - N/A   Scattered Clouds
2:15 AM 80.8 °F 84.6 °F 70.9 °F 72% 29.91 in 10.0 mi SSE 11.5 mph 18.4 mph N/A   Scattered Clouds
2:35 AM 80.6 °F 84.2 °F 70.9 °F 72% 29.91 in 10.0 mi SSE 11.5 mph 16.1 mph N/A   Clear
2:55 AM 80.6 °F 84.4 °F 71.1 °F 73% 29.91 in 10.0 mi SE 8.1 mph 16.1 mph N/A   Clear
3:15 AM 80.4 °F 84.1 °F 70.9 °F 73% 29.91 in 10.0 mi SE 10.4 mph - N/A   Clear
3:35 AM 80.2 °F 83.7 °F 71.1 °F 73% 29.90 in 10.0 mi SE 11.5 mph 16.1 mph N/A   Clear
3:55 AM 80.2 °F 83.7 °F 71.1 °F 73% 29.90 in 10.0 mi SE 11.5 mph 17.3 mph N/A   Clear
4:15 AM 80.2 °F 83.7 °F 71.1 °F 73% 29.89 in 10.0 mi SE 10.4 mph 17.3 mph N/A   Clear
4:35 AM 80.1 °F 83.6 °F 71.1 °F 74% 29.89 in 10.0 mi SE 11.5 mph 16.1 mph N/A   Clear
4:55 AM 79.7 °F - 71.1 °F 75% 29.88 in 10.0 mi SE 9.2 mph 16.1 mph N/A   Clear
5:15 AM 79.7 °F - 71.2 °F 75% 29.88 in 10.0 mi SE 9.2 mph 16.1 mph N/A   Clear
5:35 AM 79.2 °F - 71.4 °F 77% 29.87 in 10.0 mi SE 8.1 mph - N/A   Clear
5:55 AM 79.2 °F - 71.4 °F 77% 29.87 in 10.0 mi SE 8.1 mph 16.1 mph N/A   Clear
6:15 AM 79.0 °F - 71.6 °F 78% 29.89 in 10.0 mi SE 6.9 mph - N/A   Clear
6:35 AM 78.8 °F - 71.4 °F 78% 29.89 in 10.0 mi SE 6.9 mph - N/A   Clear
6:55 AM 78.4 °F - 71.4 °F 79% 29.90 in 7.0 mi SE 4.6 mph - N/A   Clear
7:15 AM 78.6 °F - 71.6 °F 79% 29.90 in 7.0 mi SE 6.9 mph - N/A   Clear
7:35 AM 79.2 °F - 71.6 °F 78% 29.91 in 7.0 mi SE 6.9 mph - N/A   Clear
7:55 AM 80.1 °F 83.8 °F 71.8 °F 76% 29.92 in 7.0 mi SE 6.9 mph - N/A   Clear
8:15 AM 80.8 °F 84.9 °F 72.0 °F 74% 29.92 in 7.0 mi SE 5.8 mph - N/A   Clear
8:35 AM 82.0 °F 87.0 °F 72.3 °F 72% 29.93 in 7.0 mi SE 9.2 mph - N/A   Scattered Clouds
8:55 AM 83.1 °F 88.1 °F 71.6 °F 68% 29.92 in 7.0 mi SE 15.0 mph 19.6 mph N/A   Scattered Clouds
9:15 AM 83.7 °F 88.6 °F 71.2 °F 66% 29.93 in 7.0 mi SSE 9.2 mph 16.1 mph N/A   Clear
9:35 AM 84.6 °F 89.4 °F 70.7 °F 63% 29.93 in 7.0 mi SE 11.5 mph 17.3 mph N/A   Clear
9:55 AM 84.9 °F 89.1 °F 69.6 °F 60% 29.93 in 7.0 mi SE 11.5 mph 20.7 mph N/A   Clear
10:15 AM 86.0 °F 90.1 °F 69.3 °F 57% 29.93 in 7.0 mi SSE 11.5 mph 19.6 mph N/A   Clear
10:35 AM 86.9 °F 90.6 °F 68.4 °F 54% 29.93 in 7.0 mi SSE 11.5 mph 19.6 mph N/A   Clear
10:55 AM 88.2 °F 92.5 °F 69.1 °F 53% 29.93 in 7.0 mi SE 11.5 mph 19.6 mph N/A   Clear
11:15 AM 88.5 °F 92.3 °F 68.5 °F 51% 29.93 in 7.0 mi SSE 9.2 mph - N/A   Clear
11:35 AM 89.8 °F 93.3 °F 67.6 °F 48% 29.93 in 7.0 mi SSE 8.1 mph - N/A   Clear
11:55 AM 90.3 °F 94.3 °F 68.2 °F 48% 29.92 in 7.0 mi SSE 8.1 mph - N/A   Clear
12:15 PM 91.2 °F 94.1 °F 66.7 °F 44% 29.92 in 7.0 mi ESE 9.2 mph 19.6 mph N/A   Clear
12:35 PM 92.3 °F 95.1 °F 66.2 °F 42% 29.92 in 7.0 mi SSE 11.5 mph 18.4 mph N/A   Clear
12:55 PM 92.8 °F 96.1 °F 66.4 °F 42% 29.91 in 7.0 mi SSE 9.2 mph 18.4 mph N/A   Clear
1:15 PM 94.1 °F 96.9 °F 65.3 °F 39% 29.91 in 10.0 mi SSE 11.5 mph 16.1 mph N/A   Clear
1:35 PM 94.6 °F 96.8 °F 64.9 °F 37% 29.90 in 10.0 mi SE 10.4 mph 17.3 mph N/A   Clear
1:55 PM 95.2 °F 97.3 °F 64.4 °F 36% 29.90 in 10.0 mi SE 10.4 mph 17.3 mph N/A   Clear
2:15 PM 96.1 °F 97.8 °F 63.3 °F 34% 29.89 in 10.0 mi SE 8.1 mph - N/A   Clear
2:35 PM 96.8 °F 97.1 °F 60.8 °F 30% 29.89 in 10.0 mi SE 10.4 mph - N/A   Clear
2:55 PM 97.3 °F 97.5 °F 59.9 °F 29% 29.87 in 10.0 mi SE 3.5 mph - N/A   Clear
3:15 PM 97.9 °F 97.0 °F 57.9 °F 26% 29.87 in 10.0 mi ESE 10.4 mph 16.1 mph N/A   Clear
3:35 PM 98.6 °F 98.0 °F 57.7 °F 26% 29.86 in 10.0 mi SE 5.8 mph - N/A   Clear
3:55 PM 98.8 °F 98.3 °F 58.8 °F 26% 29.85 in 10.0 mi SSE 10.4 mph 17.3 mph N/A   Clear
4:15 PM 98.8 °F 97.8 °F 57.7 °F 25% 29.84 in 10.0 mi ESE 13.8 mph 18.4 mph N/A   Clear
4:35 PM 99.5 °F 98.4 °F 57.0 °F 24% 29.83 in 10.0 mi SSE 10.4 mph 17.3 mph N/A   Scattered Clouds
4:55 PM 99.9 °F 99.0 °F 56.8 °F 24% 29.82 in 10.0 mi SE 12.7 mph 18.4 mph N/A   Scattered Clouds
5:15 PM 99.1 °F 97.9 °F 56.1 °F 24% 29.82 in 10.0 mi SE 11.5 mph 21.9 mph N/A   Scattered Clouds
5:35 PM 99.0 °F 99.0 °F 59.4 °F 27% 29.81 in 10.0 mi SE 12.7 mph 19.6 mph N/A   Scattered Clouds
5:55 PM 97.5 °F 97.3 °F 59.7 °F 28% 29.81 in 7.0 mi ESE 10.4 mph 19.6 mph N/A   Scattered Clouds
6:15 PM 97.0 °F 96.9 °F 59.9 °F 29% 29.81 in 10.0 mi SE 9.2 mph 21.9 mph N/A   Scattered Clouds
6:35 PM 96.4 °F 97.0 °F 61.0 °F 31% 29.80 in 10.0 mi SE 10.4 mph 18.4 mph N/A   Clear
6:55 PM 95.9 °F 95.7 °F 60.3 °F 30% 29.81 in 7.0 mi SE 13.8 mph 19.6 mph N/A   Clear
7:15 PM 95.2 °F 95.5 °F 60.6 °F 32% 29.81 in 10.0 mi SE 10.4 mph 18.4 mph N/A   Clear
7:35 PM 94.1 °F 94.2 °F 61.2 °F 33% 29.81 in 10.0 mi SE 10.4 mph - N/A   Clear
7:55 PM 93.2 °F 93.3 °F 61.3 °F 34% 29.81 in 7.0 mi SE 10.4 mph - N/A   Clear
8:15 PM 91.6 °F 91.6 °F 61.3 °F 36% 29.82 in 10.0 mi SE 9.2 mph - N/A   Clear
8:35 PM 90.9 °F 90.0 °F 59.0 °F 34% 29.82 in 10.0 mi SE 11.5 mph 18.4 mph N/A   Clear
8:55 PM 90.0 °F 89.7 °F 60.4 °F 37% 29.83 in 10.0 mi ESE 10.4 mph 18.4 mph N/A   Clear
9:15 PM 88.7 °F 89.1 °F 62.2 °F 41% 29.83 in 10.0 mi SE 12.7 mph 18.4 mph N/A   Clear
9:35 PM 87.8 °F 88.5 °F 63.0 °F 43% 29.84 in 10.0 mi SE 11.5 mph 18.4 mph N/A   Clear
9:55 PM 87.1 °F 88.3 °F 63.9 °F 46% 29.85 in 10.0 mi SE 15.0 mph 19.6 mph N/A   Clear
10:15 PM 86.2 °F 87.3 °F 64.0 °F 47% 29.85 in 10.0 mi SE 11.5 mph 18.4 mph N/A   Clear
10:35 PM 85.3 °F 86.8 °F 64.8 °F 50% 29.87 in 10.0 mi SE 11.5 mph 17.3 mph N/A   Clear
10:55 PM 84.6 °F 86.3 °F 65.3 °F 52% 29.89 in 10.0 mi SE 8.1 mph - N/A   Clear
11:15 PM 83.7 °F 85.5 °F 65.7 °F 54% 29.90 in 10.0 mi SE 13.8 mph 18.4 mph N/A   Clear
11:35 PM 83.1 °F 85.4 °F 66.4 °F 57% 29.90 in 10.0 mi SE 17.3 mph 21.9 mph N/A   Clear
11:55 PM 82.4 °F 84.6 °F 66.4 °F 58% 29.91 in 10.0 mi SE 12.7 mph 19.6 mph N/A   Clear